When you browse on this site, cookies collect data to enhance your experience and personalize the content and advertising you see.
Visit our Privacy Policy to learn more. By continuing to use the site, you agree to this use of cookies and data.

Hourly Weather Verhnee Stepnoe

Today, 27 September, Sunday

Time Temperature Precipitation Wind Pressure Humidity
00:00 +11°C° 0 mm 1 mps 764 mmHg 60%
01:00 +11°C° 0 mm 1 mps 764 mmHg 60%
02:00 +11°C° 0 mm 1 mps 764 mmHg 60%
03:00 +10°C° 0 mm 1 mps 765 mmHg 62%
04:00 +10°C° 0 mm 1 mps 765 mmHg 63%
05:00 +10°C° 0 mm 1 mps 765 mmHg 64%
06:00 +10°C° 0 mm 1 mps 765 mmHg 65%
07:00 +11°C° 0 mm 1 mps 765 mmHg 60%
08:00 +13°C° 0 mm 2 mps 765 mmHg 55%
09:00 +15°C° 0 mm 2 mps 765 mmHg 51%
10:00 +16°C° 0 mm 2 mps 765 mmHg 47%
11:00 +17°C° 0 mm 2 mps 765 mmHg 44%
12:00 +18°C° 0 mm 2 mps 765 mmHg 40%
13:00 +19°C° 0 mm 1 mps 765 mmHg 39%
14:00 +19°C° 0 mm 1 mps 765 mmHg 39%
15:00 +19°C° 0 mm 1 mps 765 mmHg 38%
16:00 +18°C° 0 mm 1 mps 765 mmHg 43%
17:00 +15°C° 0 mm 1 mps 765 mmHg 47%
18:00 +14°C° 0 mm 1 mps 765 mmHg 51%
19:00 +14°C° 0 mm 1 mps 765 mmHg 52%
20:00 +13°C° 0 mm 1 mps 765 mmHg 53%
21:00 +13°C° 0 mm 1 mps 765 mmHg 54%
22:00 +13°C° 0 mm 1 mps 765 mmHg 55%
23:00 +12°C° 0 mm 1 mps 765 mmHg 55%

Tomorrow, 28 September, Monday

Time Temperature Precipitation Wind Pressure Humidity
00:00 +12°C° 0 mm 1 mps 765 mmHg 56%
01:00 +11°C° 0 mm 0 mps 766 mmHg 57%
02:00 +11°C° 0 mm 0 mps 766 mmHg 57%
03:00 +11°C° 0 mm 0 mps 766 mmHg 58%
04:00 +10°C° 0 mm 0 mps 766 mmHg 60%
05:00 +10°C° 0 mm 0 mps 766 mmHg 62%
06:00 +10°C° 0 mm 0 mps 766 mmHg 63%
07:00 +11°C° 0 mm 0 mps 766 mmHg 59%
08:00 +13°C° 0 mm 0 mps 766 mmHg 54%
09:00 +15°C° 0 mm 0 mps 766 mmHg 49%
10:00 +16°C° 0 mm 0 mps 766 mmHg 46%
11:00 +17°C° 0 mm 0 mps 766 mmHg 43%
12:00 +18°C° 0 mm 0 mps 766 mmHg 40%
13:00 +18°C° 0 mm 0 mps 766 mmHg 40%
14:00 +18°C° 0 mm 0 mps 766 mmHg 40%
15:00 +18°C° 0 mm 0 mps 765 mmHg 39%
16:00 +17°C° 0 mm 0 mps 765 mmHg 44%
17:00 +16°C° 0 mm 1 mps 765 mmHg 49%
18:00 +15°C° 0 mm 1 mps 765 mmHg 53%
19:00 +14°C° 0 mm 1 mps 765 mmHg 56%
20:00 +13°C° 0 mm 1 mps 765 mmHg 58%
21:00 +13°C° 0 mm 1 mps 766 mmHg 60%
22:00 +12°C° 0 mm 1 mps 766 mmHg 61%
23:00 +12°C° 0 mm 1 mps 766 mmHg 63%

Day after tomorrow, 29 September, Tuesday

Time Temperature Precipitation Wind Pressure Humidity
00:00 +12°C° 0 mm 1 mps 766 mmHg 64%
01:00 +11°C° 0 mm 1 mps 766 mmHg 65%
02:00 +11°C° 0 mm 1 mps 766 mmHg 66%
03:00 +10°C° 0 mm 0 mps 766 mmHg 67%
04:00 +11°C° 0 mm 1 mps 766 mmHg 68%
05:00 +10°C° 0 mm 1 mps 766 mmHg 69%
06:00 +10°C° 0 mm 1 mps 766 mmHg 70%
07:00 +12°C° 0 mm 1 mps 766 mmHg 64%
08:00 +14°C° 0 mm 1 mps 766 mmHg 59%
09:00 +15°C° 0 mm 1 mps 766 mmHg 53%
10:00 +18°C° 0 mm 1 mps 766 mmHg 50%
11:00 +18°C° 0 mm 2 mps 765 mmHg 46%
12:00 +19°C° 0 mm 2 mps 765 mmHg 42%
13:00 +19°C° 0 mm 2 mps 765 mmHg 41%
14:00 +19°C° 0 mm 2 mps 765 mmHg 41%
15:00 +19°C° 0 mm 2 mps 764 mmHg 40%
16:00 +18°C° 0 mm 2 mps 764 mmHg 45%
17:00 +16°C° 0 mm 1 mps 764 mmHg 50%
18:00 +14°C° 0 mm 1 mps 764 mmHg 56%
19:00 +14°C° 0 mm 1 mps 764 mmHg 58%
20:00 +13°C° 0 mm 2 mps 764 mmHg 61%
21:00 +13°C° 0 mm 2 mps 764 mmHg 63%
22:00 +12°C° 0 mm 2 mps 764 mmHg 66%
23:00 +12°C° 0 mm 2 mps 764 mmHg 68%

30 September, Wednesday

Time Temperature Precipitation Wind Pressure Humidity
00:00 +10°C° 0 mm 2 mps 764 mmHg 71%
01:00 +10°C° 0 mm 2 mps 764 mmHg 74%
02:00 +10°C° 0 mm 2 mps 763 mmHg 77%
03:00 +9°C° 0 mm 2 mps 763 mmHg 80%
04:00 +9°C° 0 mm 2 mps 764 mmHg 82%
05:00 +9°C° 0 mm 2 mps 764 mmHg 84%
06:00 +8°C° 0 mm 2 mps 764 mmHg 86%
07:00 +10°C° 0 mm 2 mps 763 mmHg 80%
08:00 +13°C° 0 mm 2 mps 763 mmHg 73%
09:00 +14°C° 0 mm 3 mps 763 mmHg 66%
10:00 +16°C° 0 mm 3 mps 763 mmHg 61%
11:00 +18°C° 0 mm 3 mps 763 mmHg 55%
12:00 +19°C° 0 mm 3 mps 763 mmHg 49%
13:00 +19°C° 0 mm 3 mps 763 mmHg 49%
14:00 +19°C° 0 mm 3 mps 763 mmHg 48%
15:00 +20°C° 0 mm 3 mps 762 mmHg 48%
16:00 +18°C° 0 mm 3 mps 762 mmHg 54%
17:00 +17°C° 0 mm 2 mps 762 mmHg 59%
18:00 +15°C° 0 mm 2 mps 762 mmHg 65%
19:00 +14°C° 0 mm 2 mps 762 mmHg 66%
20:00 +14°C° 0 mm 2 mps 762 mmHg 68%
21:00 +13°C° 0 mm 2 mps 763 mmHg 70%
22:00 +13°C° 0 mm 2 mps 763 mmHg 71%
23:00 +12°C° 0 mm 2 mps 763 mmHg 72%

1 October, Thursday

Time Temperature Precipitation Wind Pressure Humidity
00:00 +12°C° 0 mm 2 mps 763 mmHg 73%
01:00 +12°C° 0 mm 2 mps 763 mmHg 74%
02:00 +10°C° 0 mm 2 mps 762 mmHg 76%
03:00 +10°C° 0 mm 2 mps 762 mmHg 78%
04:00 +11°C° 0 mm 1 mps 763 mmHg 79%
05:00 +11°C° 0 mm 1 mps 763 mmHg 81%
06:00 +11°C° 0 mm 1 mps 763 mmHg 82%
07:00 +12°C° 0 mm 1 mps 763 mmHg 76%
08:00 +14°C° 0 mm 2 mps 763 mmHg 70%
09:00 +16°C° 0 mm 2 mps 763 mmHg 64%
10:00 +17°C° 0 mm 2 mps 762 mmHg 59%
11:00 +18°C° 0 mm 2 mps 762 mmHg 55%
12:00 +19°C° 0 mm 2 mps 762 mmHg 51%
13:00 +20°C° 0 mm 2 mps 762 mmHg 49%
14:00 +20°C° 0 mm 2 mps 762 mmHg 48%
15:00 +20°C° 0 mm 2 mps 762 mmHg 47%
16:00 +18°C° 0 mm 2 mps 761 mmHg 51%
17:00 +17°C° 0 mm 2 mps 761 mmHg 56%
18:00 +15°C° 0 mm 2 mps 761 mmHg 61%
19:00 +14°C° 0 mm 2 mps 761 mmHg 64%
20:00 +14°C° 0 mm 2 mps 761 mmHg 68%
21:00 +13°C° 0 mm 2 mps 761 mmHg 72%
22:00 +13°C° 0 mm 2 mps 761 mmHg 73%
23:00 +12°C° 0 mm 2 mps 761 mmHg 75%

2 October, Friday

Time Temperature Precipitation Wind Pressure Humidity
00:00 +12°C° 0 mm 2 mps 761 mmHg 76%
01:00 +10°C° 0 mm 2 mps 761 mmHg 77%
02:00 +10°C° 0 mm 2 mps 761 mmHg 78%
03:00 +10°C° 0 mm 1 mps 761 mmHg 79%
04:00 +10°C° 0 mm 1 mps 761 mmHg 80%
05:00 +10°C° 0 mm 1 mps 761 mmHg 81%
06:00 +10°C° 0 mm 1 mps 761 mmHg 82%
07:00 +10°C° 0 mm 2 mps 761 mmHg 75%
08:00 +13°C° 0 mm 2 mps 761 mmHg 67%
09:00 +15°C° 0 mm 2 mps 761 mmHg 60%
10:00 +16°C° 0 mm 2 mps 761 mmHg 55%
11:00 +17°C° 0 mm 2 mps 761 mmHg 49%
12:00 +18°C° 0 mm 2 mps 761 mmHg 44%
13:00 +19°C° 0 mm 2 mps 761 mmHg 43%
14:00 +19°C° 0 mm 2 mps 761 mmHg 42%
15:00 +19°C° 0 mm 2 mps 760 mmHg 41%
16:00 +17°C° 0 mm 2 mps 760 mmHg 47%
17:00 +16°C° 0 mm 2 mps 760 mmHg 52%
18:00 +14°C° 0 mm 2 mps 760 mmHg 58%
19:00 +14°C° 0 mm 2 mps 760 mmHg 60%
20:00 +13°C° 0 mm 2 mps 760 mmHg 63%
21:00 +12°C° 0 mm 2 mps 760 mmHg 65%
22:00 +12°C° 0 mm 2 mps 760 mmHg 67%
23:00 +12°C° 0 mm 1 mps 760 mmHg 68%
Show more